Flag for Poland Weather past 2 weeks in Lódz, Poland

Now
49 °F

Sprinkles. Low clouds.


Feels Like: 46 °F
Forecast: 39 / 57 °F
Wind: 7 mph from Southwest

Location: Lodz

Current Time: Sep 23, 2014 at 8:26:00 AM

Latest Report: Sep 23, 2014 at 7:00 AM


Visibility: 3 mi

Pressure: 29.76 "Hg

Humidity: 97%

Dew point: 48 °F

Location of LódzLocation

Historic Weather in Lódz — Graph

°F

Lódz temperature yesterday

Maximum temperature yesterday: 59 °F (at 12:00 AM)
Minimum temperature yesterday: 47 °F (at 11:00 PM)
Average temperature yesterday: 54 °F

Past Weeks' High & Low Weather Summary

 TemperatureHumidityPressure
High77 °F (Sep 8, 1:00 PM)99% (Sep 21, 12:00 AM)30.21 "Hg (Sep 21, 12:00 AM)
Low47 °F (Sep 23, 1:00 AM)42% (Sep 19, 1:00 PM)29.69 "Hg (Sep 22, 4:00 AM)
Average61 °F79%30.02 "Hg
* Reported Sep 8 7:00 AM — Sep 23 7:00 AM, Lódz, Weather by CustomWeather, © 2014

Note: Actual official high and low records may vary slightly from our data, if they occured in-between our weather recording intervals... More about our weather records

Advertising

Lódz weather history for previous 24 hours

 ConditionsComfort  
Time TempWeatherWind HumidityBarometerVisibility
7:00 AM
Sep 23
49 °FSprinkles. Low clouds.7 mph97%29.76 "Hg3 mi
6:00 AM48 °FRain showers. Low clouds.7 mph96%29.76 "Hg3 mi
5:00 AM49 °FOvercast.6 mph88%29.78 "Hg8 mi
4:00 AM48 °FOvercast.6 mph92%29.78 "Hg7 mi
3:00 AM48 °FOvercast.5 mph92%29.79 "Hg1 mi
2:00 AM47 °FLow clouds.5 mph95%29.79 "Hg6 mi
1:00 AM47 °FPassing clouds.5 mph95%29.80 "Hg6 mi
12:00 AM47 °FClear.5 mph92%29.79 "Hg6 mi
11:00 PM
Sep 22
47 °FClear.5 mph90%29.79 "Hg6 mi
10:00 PM48 °FClear.5 mph87%29.79 "Hg7 mi
9:00 PM50 °FPassing clouds.6 mph87%29.77 "Hg7 mi
8:00 PM50 °FPassing clouds.2 mph85%29.77 "Hg6 mi
7:00 PM53 °FPassing clouds.3 mph81%29.75 "Hg8 mi
6:00 PM56 °FScattered clouds.5 mph74%29.74 "Hg8 mi
5:00 PM57 °FScattered clouds.6 mph72%29.72 "Hg7 mi
4:00 PM55 °FThunderstorms. Partly sunny.5 mph80%29.73 "Hg9 mi
3:00 PM54 °FThunderstorms. Partly sunny.5 mph82%29.73 "Hg6 mi
2:00 PM55 °FPartly sunny.5 mph84%29.73 "Hg11 mi
1:00 PM58 °FPartly sunny.6 mph68%29.73 "Hg13 mi
12:00 PM54 °FOvercast.7 mph82%29.73 "Hg8 mi
11:00 AM55 °FOvercast.8 mph80%29.73 "Hg7 mi
10:00 AM54 °FOvercast.7 mph86%29.72 "Hg6 mi
9:00 AM54 °FOvercast.7 mph92%29.72 "Hg6 mi
8:00 AM53 °FLight rain. Low clouds.5 mph95%29.72 "Hg6 mi
Weather by CustomWeather, © 2014

See weather overviewHow to use our weather pages